Flag Weather past 2 weeks in Sarajevo, Bosnia-Herzegovina

Now
39 °F

Fog.


Feels Like: 39 °F
Forecast: 42 / 52 °F
Wind: 1 mph from North

Location: Sarajevo / Butmir

Current Time: Nov 26, 2014 at 11:33:09 AM

Latest Report: Nov 26, 2014 at 11:00 AM


Visibility: 2 mi

Pressure: 30.15 "Hg

Humidity: 87%

Dew point: 36 °F

Location of SarajevoLocation

Historic Weather in Sarajevo — Graph

°F

Sarajevo temperature yesterday

Maximum temperature yesterday: 37 °F (at 3:30 PM)
Minimum temperature yesterday: 30 °F (at 12:00 AM)
Average temperature yesterday: 34 °F

Past Weeks' High & Low Weather Summary

 TemperatureHumidityPressure
High66 °F (Nov 16, 12:30 PM)100% (Nov 11, 10:00 AM)30.39 "Hg (Nov 11, 10:00 AM)
Low27 °F (Nov 22, 6:00 AM)49% (Nov 16, 2:00 PM)29.74 "Hg (Nov 12, 9:00 PM)
Average45 °F86%30.07 "Hg
* Reported Nov 11 10:00 AM — Nov 26 10:30 AM, Sarajevo, Weather by CustomWeather, © 2014

Note: Actual official high and low records may vary slightly from our data, if they occured in-between our weather recording intervals... More about our weather records

Advertising

Sarajevo weather history for previous 24 hours

 ConditionsComfort  
Time TempWeatherWind HumidityBarometerVisibility
10:30 AM
Nov 26
39 °FFog.1 mph87%30.18 "Hg1 mi
10:00 AM39 °FFog.1 mph87%30.18 "Hg1 mi
9:30 AM37 °FFog.1 mph93%30.18 "Hg1 mi
9:00 AM37 °FFog.1 mph93%30.18 "Hg1 mi
8:30 AM37 °FFog.1 mph93%30.18 "Hg1 mi
8:00 AM37 °FFog.2 mph93%30.18 "Hg1 mi
7:30 AM37 °FFog.1 mph93%30.18 "Hg1 mi
7:00 AM37 °FFog.1 mph93%30.18 "Hg1 mi
6:30 AM37 °FFog.1 mph93%30.18 "Hg1 mi
6:00 AM37 °FFog.1 mph93%30.18 "Hg1 mi
5:30 AM37 °FFog.1 mph93%30.18 "Hg1 mi
4:00 AM37 °FFog.1 mph93%30.21 "Hg1 mi
3:00 AM37 °FFog.1 mph93%30.21 "Hg1 mi
2:00 AM37 °FFog.No wind93%30.24 "Hg1 mi
1:00 AM37 °FFog.1 mph93%30.24 "Hg1 mi
12:00 AM37 °FFog.No wind93%30.24 "Hg1 mi
11:00 PM
Nov 25
37 °FFog.1 mph93%30.24 "Hg1 mi
10:00 PM37 °FFog.No wind93%30.24 "Hg1 mi
9:30 PM37 °FFog.No wind93%30.24 "Hg1 mi
9:00 PM37 °FFog.1 mph93%30.24 "Hg1 mi
8:30 PM37 °FFog.1 mph93%30.24 "Hg1 mi
8:00 PM37 °FFog.1 mph93%30.24 "Hg1 mi
7:30 PM37 °FFog.1 mph93%30.24 "Hg1 mi
7:00 PM37 °FLight rain. Fog.1 mph93%30.24 "Hg1 mi
6:30 PM37 °FFog.No wind93%30.24 "Hg1 mi
6:00 PM37 °FFog.1 mph93%30.24 "Hg1 mi
5:30 PM37 °FFog.1 mph93%30.24 "Hg1 mi
5:00 PM37 °FFog.No wind93%30.21 "Hg1 mi
4:30 PM36 °FFog.1 mph100%30.21 "Hg1 mi
4:00 PM37 °FFog.1 mph93%30.21 "Hg1 mi
3:30 PM37 °FFog.No wind93%30.21 "Hg1 mi
3:00 PM36 °FFog.2 mph100%30.21 "Hg1 mi
2:30 PM36 °FFog.1 mph100%30.21 "Hg1 mi
2:00 PM36 °FLight rain. Fog.2 mph100%30.21 "Hg1 mi
1:30 PM36 °FFog.No wind93%30.21 "Hg1 mi
1:00 PM36 °FFog.1 mph93%30.24 "Hg1 mi
12:30 PM34 °FFog.1 mph100%30.24 "Hg1 mi
12:00 PM34 °FFog.1 mph100%30.27 "Hg1 mi
11:30 AM34 °FFog.1 mph93%30.27 "Hg1 mi
11:00 AM32 °FLight freezing rain. Ice fog.2 mph100%30.30 "Hg1 mi
Weather by CustomWeather, © 2014

See weather overviewHow to use our weather pages